Printer-friendly version

IAU Minor Planet Center

Minor Planet Center

MPEC 2006-Q39 : 1998 QP = 2006 CY

The following Minor Planet Electronic Circular may be linked-to from your own Web pages, but must not otherwise be redistributed electronically.


Read MPEC 2006-Q38 Read MPEC 2006-Q40


M.P.E.C. 2006-Q39                                Issued 2006 Aug. 28, 15:44 UT

     The Minor Planet Electronic Circulars contain information on unusual
         minor planets and routine data on comets.  They are published
   on behalf of Commission 20 of the International Astronomical Union by the
          Minor Planet Center, Smithsonian Astrophysical Observatory,
                          Cambridge, MA 02138, U.S.A.

                  Supported in part by the Brinson Foundation
                  Supported in part by the TABASGO Foundation
             Prepared using the Tamkin Foundation Computer Network

                              MPC@CFA.HARVARD.EDU
          URL http://cfa-www.harvard.edu/iau/mpc.html  ISSN 1523-6714

                               1998 QP = 2006 CY

                           Revision to MPEC 1998-Q07

Orbital elements:
1998 QP = 2006 CY                                   PHA, Earth MOID = 0.0120 AU
Id. S. Foglia
Epoch 2006 Sept. 22.0 TT = JDT 2454000.5                MPC
M 119.93663              (2000.0)            P               Q
n   0.41306481     Peri.   77.94994     +0.70213897     -0.70647273
a   1.7856263      Node   326.87589     +0.57351738     +0.63508688
e   0.5832819      Incl.    9.35917     +0.42199371     +0.31234747
P   2.39           H   21.2           G   0.15           U   1
Residuals in seconds of arc
980817 704  1.2+  0.6+    980821 670  0.3+  0.1+    980823 670  0.2+  0.2-
980817 704  1.0+  0.5-    980821 670  0.1+  0.3+    980823 670  0.1+  0.8+
980817 704  1.5+  0.3-    980821 402  0.5+  0.1+    980823 670  0.1+  0.2+
980817 704  1.2+  0.1+    980821 402  0.5+  0.1+    980823 670  0.4+  0.1-
980817 704  0.9-  0.8+    980821 402  0.5+  0.2-    980823 670  0.5+  0.3-
980817 046  0.5+  0.2+    980821 402  0.6+  0.1-    980823 670  0.6+  0.1-
980817 046  0.4+  0.1+    980821 402  0.6+  0.2+    980823 670  0.5+  0.9-
980817 046  0.5+  0.2+    980821 121  0.2-  0.7-    980823 670  0.4+  0.5-
980817 046  0.6+  0.2+    980821 121  0.4-  0.1+    980823 908  0.4-  0.8-
980818 758  1.1+  1.4-    980821 121  0.6-  0.2-    980823 908  0.2-  0.3+
980819 620  0.3+  0.0     980821 121  0.5-  0.3+    980823 908  0.2-  0.4+
980819 620  0.4+  0.1+    980821 620  0.7-  0.7+    980823 355  0.0   0.5+
980819 620  0.3-  0.2-    980821 620  0.6-  0.5+    980823 355  0.0   0.1+
980819 620  0.2-  0.5-    980821 620  0.5-  0.5+    980823 355  0.1+  0.9-
980819 758  0.7+  0.6+    980821 620  0.5-  0.5+    980823 355  0.2+  1.5-
980819 758  0.8+  0.4+    980821 121  0.3-  0.3+    980823 355  0.2-  0.7+
980819 758  1.0+  0.3+    980821 121  0.2-  0.1+    980823 355  0.5+  2.0-
980819 758  1.1+  0.1+    980821 620  0.8-  0.4+    980823 620  1.3-  1.3+
980819 758  1.2+  0.2-    980821 620  0.9-  0.6+    980823 620  1.2-  1.9+
980819 758  1.2+  0.6+    980822 827  0.2+  0.3+    980823 620 (1.1-  2.4+)
980819 670  0.4+  0.2+    980822 827  0.0   1.9-    980823 620  1.0-  1.8+
980819 670  0.5+  0.5+    980822 827  1.8+  0.8-    980823 620  1.0-  1.0+
980819 670  0.1+  0.2+    980822 827  0.1+  0.0     980823 620 (2.3-  2.3+)
980819 422  0.1+  0.5-    980822 827  0.0   0.1+    980823 620  1.7-  1.1+
980819 422  0.0   0.5-    980822 827  0.1-  0.5-    980823 587  0.5-  1.5+
980819 422  0.1+  0.4-    980822 827  0.5-  0.1-    980823 587  0.2-  1.5-
980819 422  0.0   0.3-    980822 827  0.5-  0.2+    980824 758  0.0   1.3-
980819 611  0.4-  0.4-    980822 827  0.0   0.2-    980824 758  0.3-  0.3+
980819 611  0.3-  0.2-    980822 827  0.7-  0.5-    980824 758 (0.5+  1.9-)
980819 611  0.0   0.9+    980822 835  0.4-  1.2+    980824 758 (0.2+  2.9-)
980820 046  0.3-  0.6-    980822 827  0.6-  0.4-    980824 758  0.0   1.1-
980820 046  0.5-  0.7-    980822 827  0.2-  0.1+    060204 703  0.4+  0.4+
980820 046  0.3-  0.6-    980822 827  0.4-  0.6-    060204 703  0.2-  0.1-
980820 046  0.4-  0.3-    980822 835  0.1-  1.2+    060204 703  0.6-  1.2-
980820 046  0.5-  0.6-    980822 827  0.5-  0.2-    060204 703  0.2-  0.0
980820 670  0.4-  0.0     980822 827  0.3-  0.3-    060204 703  0.5-  0.5-
980820 670  0.3-  0.1+    980822 827  0.4-  0.0     060204 703  0.2+  0.5+
980820 670  0.0   0.0     980822 835  0.1-  0.8+    060204 703  0.4-  0.2+
980820 670  0.0   0.1+    980822 827  0.9-  0.5+    060204 703  0.2-  0.7-
980820 670  0.1-  0.1+    980822 827  0.4-  0.1-    060204 673  0.8+  1.1-
980820 360  0.2+  0.1+    980822 827  0.4-  0.5+    060204 673  0.4+  0.3-
980820 360  0.3+  0.0     980822 827  0.7-  0.3+    060204 673  0.1+  0.2+
980820 360  0.2+  0.1+    980822 835  0.6-  1.2+    060204 673  0.2-  0.6+
980820 422  0.3+  0.3+    980822 835  0.1-  1.5+    060204 854  0.1+  0.1+
980820 422  0.5+  0.8+    980822 835  0.3-  1.7+    060204 854  1.1+  0.1-
980820 422  0.6+  0.4+    980822 670  0.0   0.2-    060204 854  0.7+  0.5+
980820 587  0.2+  0.0     980822 670  0.2-  0.0     060204 734  0.0   0.2-
980820 587  0.4+  0.6-    980822 670  0.0   0.5-    060204 734  0.1-  0.2-
980820 587  0.0   0.9-    980822 402  0.3+  0.3-    060204 734  0.1+  0.2-
980820 143  0.1+  0.6-    980822 402  0.1+  0.8+    060204 703  0.5-  1.1+
980820 143  0.2+  0.9-    980822 402  0.1-  0.9+    060204 703  0.3-  1.3+
980820 143  0.2+  1.0-    980822 402  0.3+  0.8+    060204 703  0.1-  0.2-
980820 952  0.0   0.7-    980822 402  0.3+  0.2+    060204 703  0.8-  0.6+
980820 952  0.0   0.6-    980822 402  0.1-  0.0     060204 201  0.1+  0.4-
980820 952  0.4-  0.5-    980822 908  0.2+  0.7+    060204 201  0.3+  0.3+
980820 952  0.2+  0.4+    980822 908  0.0   0.2+    060204 201  0.2-  0.0
980820 952  0.7+  0.4+    980822 908  0.1+  0.4+    060204 201  0.2-  0.1+
980820 952  0.3+  0.5+    980822 908  0.3+  0.9+    060204 147  0.2-  0.1+
980820 952  0.2+  1.0+    980822 908  0.2+  0.1+    060204 147  0.0   0.0
980820 952  0.9+  0.3+    980822 908  0.5+  0.1+    060204 147  0.1+  0.1-
980820 952  0.5+  0.3-    980822 108  0.3+  1.4-    060205 941  0.9-  0.5+
980820 952  0.3+  0.8-    980822 108  0.8+  1.0+    060205 941  0.7-  0.3+
980820 952  0.3+  0.9-    980822 108  0.1-  1.2-    060205 941  0.4-  0.2+
980820 557  0.0   0.2-    980822 108  0.0   0.8-    060205 941  0.3-  0.2-
980820 557  0.1-  0.3+    980823 827  0.5+  0.1+    060205 A48  1.8+  1.8-
980820 557  0.0   0.4+    980823 827  0.4+  0.7-    060205 A48  0.5+  1.8-
980820 557  0.0   0.0     980823 827  0.7+  1.0-    060205 A48  1.5+  1.6-
980821 758 (0.5-  3.5+)   980823 827  0.7+  1.1-    060215 J95  0.1-  0.4-
980821 758  0.1-  0.2+    980823 827  0.4+  0.0     060215 J95  0.0   0.3-
980821 758  0.1+  0.9-    980823 827  0.0   0.4-    060215 J95  0.4-  0.0
980821 758  0.3-  0.4+    980823 827  0.0   0.3-    060215 J95  0.1-  0.1+
980821 758  0.1+  0.4-    980823 827  0.1+  0.6+    060218 J95  0.0   0.1+
980821 758  0.3-  0.7-    980823 827  0.0   0.1-    060218 J95  0.4-  0.1-
980821 758  0.9-  1.2-    980823 827  0.3+  0.5-    060218 J95  0.2-  0.3+
980821 750  0.2-  0.3+    980823 827  0.0   1.2-    060223 691  0.1+  0.1-
980821 750  0.5-  0.7+    980823 827  0.1-  0.1+    060223 691  0.2+  0.1+
980821 750  0.1+  0.6+    980823 827  0.3+  0.6-    060227 291  0.4+  0.3+
980821 750  0.3-  0.8+    980823 827  0.3+  0.3-    060227 291  0.2+  0.1-
980821 750  0.2-  0.6+    980823 827  0.5+  0.9-    060227 291  0.3+  1.1+
980821 750  0.1-  0.7+    980823 827  0.1+  0.3+    060305 291  0.0   1.0+
980821 750  0.2-  0.8+    980823 827  0.2+  0.0     060305 291 (2.6+  3.6-)
980821 750  0.2-  0.5+    980823 827  0.2+  0.3-
980821 670  0.4+  0.3+    980823 670  0.4+  0.1+

Gareth V. Williams           (C) Copyright 2006 MPC           M.P.E.C. 2006-Q39

Read MPEC 2006-Q38 Read MPEC 2006-Q40


Our Web policy. Index to the CBAT/MPC/ICQ pages.


Valid HTML 4.01!